CZ-6A DEB

Satellite information

Favourite Embed

Satellite Type and Status

DEBRISIN ORBIT

Key statistics

Satellite CZ-6A DEB at a glance.

Uptime

1076

Days in orbit

Revolutions

≈ 14.5

Per day

Orbit

SSO

Sun Synchronous Orbit

Inclination

98.6

Latest

Satellite identification and parameters

Extended collection of information and parameters for CZ-6A DEB.

Object identification

Identified? True

Debris? True

Object name: CZ-6A DEB

International designator: 2022-151QN

Object number (NORAD): 54901

Object ID (CCSDS): 54901

Country: PEOPLES REPUBLIC OF CHINA (PRC)

Current information (Y/N): Y

RCS size: SMALL

Orbital parameters

Period: 98.996 minutes

Inclination: 98.6421 deg

SMA: 7088.778 km

Apoapsis: 777.844 km

Periapsis: 643.442 km

RAAN: 336.1895 deg

Eccentricy: 0.00947986

Argument of periapsis: 328.2916 deg

Mean anomaly: 31.2591 deg

Mean motion: 14.54607042 rev/day

Mean motion (dot): 0.00011512 rev/day2

B* drag term: 0.0025468356 1/REarth

Two-line elements (TLE)

Creation date: Oct. 21, 2025, 3:26 a.m.

Reference frame: TEME

Reference center: EARTH

Epoch: Oct. 20, 2025, 4:17 p.m. UTC

TLE line 0: 0 CZ-6A DEB

TLE line 1: 1 54901U 22151QN 25293.67868850 .00011512 00000-0 25468-2 0 9996

TLE line 2: 2 54901 98.6421 336.1895 0094799 328.2916 31.2591 14.54607042154379

Live tracking on map

Real-time ground track for satellite CZ-6A DEB.

In-orbit conjunctions

A list of the most updated potential collisions computed for object CZ-6A DEB.

Target Orbit TCA Probability of collision Miss distance Type
PSLV R/B SSO 2025-08-21 08:20:32 0.0103666 23.0 (m) ROCKET BODY
CZ-6A DEB LEO 2025-01-28 17:22:16 0.0002214388 476.0 (m) DEBRIS

Associated space launch

Chinese satellite reported for atmospheric/ocean/environmental/spatial parameter research purposes, details TBD.

CZ-6A DEB was lifted into orbit during the mission ‘Long March 6A | Yunhai 3’, on board a Long March 6A space rocket.

The launch took place on Nov. 11, 2022, 10:52 p.m. from Launch Complex 9A.

For more information about the launch, click the button.

Launch to space Long March 6A | Yunhai 3
Long March 6A | Yunhai 3

Agency: N/A

Status: Launch Successful

Launch date: Nov. 11, 2022, 10:52 p.m. UTC

Rocket: Long March 6A

Launch pad: Launch Complex 9A

Location: Taiyuan Satellite Launch Center, People's Republic of China

...

Latest news about this satellite

There are no fresh news available about this satellite. Check back as we update our databases every day.


Newsletter sign-up

Weekly statistics, charts and insights to help you stay on top of the space industry.